| time (UTC) | temp F | wind direction | speed knots | gust knots | rain 1hr in | rain 24hr in | rain mn in | humidity % | barometer mb |
| 20260503171521 | 56 | 222 | 0.0 | 1.7 | 0.01 | 0.01 | 0.01 | 100 | 1011.5 |
| 20260503081559 | 64 | 217 | 3.5 | 10.4 | 0.00 | 0.00 | 0.00 | 46 | 1011.9 |
| 20260503071539 | 62 | 163 | 1.7 | 8.7 | 0.00 | 0.00 | 0.00 | 53 | 1012.2 |
| 20260503054514 | 51 | 165 | 0.0 | 1.7 | 0.00 | 0.00 | 0.00 | 100 | 1012.1 |
| 20260503053011 | 48 | 167 | 0.0 | 0.0 | 0.00 | 0.00 | 0.00 | 100 | 1012.0 |
| 20260503051505 | 48 | 167 | 0.0 | 0.9 | 0.00 | 0.00 | 0.00 | 100 | 1012.1 |
| 20260503050002 | 48 | 167 | 0.0 | 0.0 | 0.00 | 0.00 | 0.00 | 100 | 1011.9 |
| 20260503044602 | 48 | 167 | 0.0 | 0.9 | 0.00 | 0.00 | 0.00 | 100 | 1012.2 |
| 20260503043055 | 48 | 165 | 0.0 | 0.0 | 0.00 | 0.00 | 0.00 | 100 | 1012.2 |
| 20260503041555 | 48 | 166 | 0.0 | 0.0 | 0.00 | 0.00 | 0.00 | 100 | 1011.9 |
| 20260503040050 | 48 | 166 | 0.0 | 0.0 | 0.00 | 0.00 | 0.00 | 100 | 1012.1 |
| 20260503034550 | 48 | 166 | 0.0 | 0.0 | 0.00 | 0.00 | 0.00 | 100 | 1012.1 |
| 20260503033047 | 48 | 166 | 0.0 | 0.0 | 0.00 | 0.00 | 0.00 | 100 | 1012.2 |
| 20260503031535 | 49 | 166 | 0.0 | 0.9 | 0.00 | 0.00 | 0.00 | 100 | 1012.2 |
| 20260503030031 | 48 | 165 | 0.0 | 0.9 | 0.00 | 0.00 | 0.00 | 100 | 1012.3 |
| 20260503024529 | 48 | 166 | 0.0 | 0.0 | 0.00 | 0.00 | 0.00 | 100 | 1012.4 |
| 20260503023025 | 48 | 165 | 0.0 | 0.0 | 0.00 | 0.00 | 0.00 | 100 | 1012.4 |
| 20260503021522 | 48 | 166 | 0.0 | 0.0 | 0.00 | 0.00 | 0.00 | 100 | 1012.5 |
| 20260503020017 | 48 | 166 | 0.0 | 0.0 | 0.00 | 0.00 | 0.00 | 100 | 1012.6 |
| 20260503014513 | 48 | 166 | 0.0 | 0.0 | 0.00 | 0.00 | 0.00 | 100 | 1012.6 |
| 20260503013009 | 48 | 166 | 0.0 | 0.0 | 0.00 | 0.00 | 0.00 | 100 | 1012.7 |
| 20260503011504 | 49 | 166 | 0.0 | 0.0 | 0.00 | 0.00 | 0.00 | 100 | 1012.7 |
| 20260503010001 | 49 | 166 | 0.0 | 0.9 | 0.00 | 0.00 | 0.00 | 100 | 1012.7 |
| 20260503003057 | 49 | 166 | 0.0 | 0.0 | 0.00 | 0.00 | 0.00 | 100 | 1013.0 |
| 20260503001551 | 49 | 165 | 0.0 | 0.0 | 0.00 | 0.00 | 0.00 | 100 | 1013.3 |
| 20260503000047 | 49 | 165 | 0.0 | 0.0 | 0.00 | 0.00 | 0.00 | 100 | 1013.4 |
| 20260502233037 | 50 | 166 | 0.0 | 0.0 | 0.00 | 0.00 | 0.00 | 100 | 1013.6 |
| 20260502231533 | 50 | 166 | 0.0 | 0.0 | 0.00 | 0.00 | 0.00 | 100 | 1013.7 |
| 20260502230029 | 51 | 165 | 0.0 | 0.0 | 0.00 | 0.00 | 0.00 | 100 | 1013.7 |
| 20260502223020 | 52 | 166 | 0.0 | 0.0 | 0.00 | 0.00 | 0.00 | 100 | 1013.7 |
| 20260502221515 | 53 | 166 | 0.0 | 0.0 | 0.00 | 0.00 | 0.00 | 100 | 1013.7 |
| 20260502220011 | 55 | 166 | 0.0 | 0.0 | 0.00 | 0.00 | 0.00 | 100 | 1013.7 |
| 20260502213002 | 56 | 165 | 0.0 | 0.0 | 0.00 | 0.00 | 0.00 | 100 | 1013.9 |
| 20260502211606 | 56 | 165 | 0.0 | 1.7 | 0.00 | 0.00 | 0.00 | 100 | 1014.0 |
| 20260502210056 | 56 | 166 | 0.0 | 1.7 | 0.00 | 0.00 | 0.00 | 100 | 1014.1 |
| 20260502203104 | 57 | 165 | 0.0 | 0.0 | 0.00 | 0.00 | 0.00 | 100 | 1014.1 |
| 20260502201554 | 58 | 165 | 0.0 | 0.9 | 0.00 | 0.00 | 0.00 | 100 | 1013.9 |
| 20260502200042 | 59 | 165 | 0.0 | 0.0 | 0.00 | 0.00 | 0.00 | 100 | 1013.9 |
| 20260502193031 | 61 | 165 | 0.0 | 0.0 | 0.00 | 0.00 | 0.00 | 35 | 1013.9 |
| 20260502191526 | 62 | 165 | 0.0 | 0.0 | 0.00 | 0.00 | 0.00 | 42 | 1013.9 |
| 20260502190030 | 63 | 165 | 0.0 | 1.7 | 0.00 | 0.00 | 0.00 | 45 | 1014.0 |
| 20260502183018 | 66 | 167 | 0.9 | 2.6 | 0.00 | 0.00 | 0.00 | 53 | 1014.3 |
| 20260502181513 | 67 | 82 | 0.0 | 1.7 | 0.00 | 0.00 | 0.00 | 54 | 1014.3 |